Northeast Philadelphia, PA

11:29 PM EST on November 17, 2019 (GMT -0500)
Northeast Philadelphia

Weather History for KPNE - September, 2019

Change the Weather History Date:

Sunday, September 1, 2019

  Actual Average Record
Temperature  
Mean Temperature 74 °F -  
Max Temperature 84 °F 79 °F 96 °F (2010)
Min Temperature 63 °F 61 °F 55 °F (2017)
Cooling Degree Days 8    
Growing Degree Days 24 (Base 50)    
Moisture  
Dew Point 57 °F    
Average Humidity 59    
Maximum Humidity 78    
Minimum Humidity 40    
Precipitation  
Precipitation 0.00 in - - ()
Sea Level Pressure  
Sea Level Pressure 30.29 in    
Wind  
Wind Speed 6 mph ()    
Max Wind Speed 14 mph    
Max Gust Speed -    
Visibility 10.0 miles    
Events      
Averages and records for this station are not official NWS values.
T = Trace of Precipitation, MM = Missing Value Source: Averaged Metar Reports

Daily Weather History Graph

Daily Weather History Graph

Search for Another Location

Airport or City:

Astronomy

Sep. 01, 2019 Rise Set
Actual Time 6:27 AM EDT 7:31 PM EDT
Civil Twilight 5:59 AM EDT 7:59 PM EDT
Nautical Twilight 5:26 AM EDT 8:32 PM EDT
Astronomical Twilight 4:51 AM EDT 9:07 PM EDT
Moon 8:54 AM EDT (9/1) 9:17 PM EDT (9/1)
Length of Visible Light 14h 00m
Length of Day
13h 04m
Waxing Crescent, 8% of the Moon is Illuminated
Sep 1
Waxing Crescent
Sep 5
First Quarter
Sep 14
Full
Sep 21
Last Quarter
Sep 28
New

Hourly Weather History & Observations

Time (EDT) Temp. Heat Index Dew Point Humidity Pressure Visibility Wind Dir Wind Speed Gust Speed Precip Events Conditions
12:54 AM 68.0 °F - 53.1 °F 59% 30.30 in 10.0 mi ENE 5.8 mph - N/A   Scattered Clouds
1:54 AM 66.0 °F - 53.1 °F 63% 30.31 in 10.0 mi Calm Calm - N/A   Clear
2:54 AM 64.0 °F - 53.1 °F 67% 30.31 in 10.0 mi NE 5.8 mph - N/A   Clear
3:54 AM 63.0 °F - 54.0 °F 72% 30.30 in 10.0 mi NE 5.8 mph - N/A   Clear
4:54 AM 64.0 °F - 54.0 °F 70% 30.31 in 10.0 mi NE 4.6 mph - N/A   Clear
5:54 AM 63.0 °F - 53.1 °F 70% 30.32 in 10.0 mi NE 5.8 mph - N/A   Clear
6:54 AM 63.0 °F - 53.1 °F 70% 30.32 in 10.0 mi NE 4.6 mph - N/A   Clear
7:54 AM 69.1 °F - 55.0 °F 61% 30.32 in 10.0 mi ENE 6.9 mph - N/A   Clear
8:54 AM 71.1 °F - 55.9 °F 59% 30.33 in 10.0 mi ENE 6.9 mph - N/A   Clear
9:54 AM 73.9 °F - 57.0 °F 55% 30.34 in 10.0 mi ENE 6.9 mph - N/A   Clear
10:54 AM 77.0 °F - 55.9 °F 48% 30.34 in 10.0 mi East 8.1 mph - N/A   Clear
11:54 AM 79.0 °F - 57.0 °F 47% 30.34 in 10.0 mi East 6.9 mph - N/A   Partly Cloudy
12:54 PM 81.0 °F 81.1 °F 57.9 °F 45% 30.32 in 10.0 mi ENE 6.9 mph - N/A   Clear
1:54 PM 82.9 °F 82.8 °F 59.0 °F 44% 30.30 in 10.0 mi East 9.2 mph - N/A   Clear
2:54 PM 82.0 °F 81.6 °F 55.9 °F 41% 30.28 in 10.0 mi SE 9.2 mph - N/A   Scattered Clouds
3:54 PM 84.0 °F 83.3 °F 57.0 °F 40% 30.26 in 10.0 mi SSE 5.8 mph - N/A   Clear
4:54 PM 82.9 °F 82.4 °F 57.0 °F 41% 30.25 in 10.0 mi ESE 12.7 mph - N/A   Clear
5:54 PM 81.0 °F 81.1 °F 57.9 °F 45% 30.25 in 10.0 mi SE 12.7 mph - N/A   Clear
6:54 PM 78.1 °F - 59.0 °F 52% 30.25 in 10.0 mi SE 13.8 mph - N/A   Clear
7:54 PM 75.0 °F - 61.0 °F 62% 30.25 in 10.0 mi SE 10.4 mph - N/A   Clear
8:54 PM 73.0 °F - 63.0 °F 71% 30.25 in 10.0 mi ESE 10.4 mph - N/A   Clear
9:54 PM 72.0 °F - 63.0 °F 73% 30.25 in 10.0 mi SE 6.9 mph - N/A   Clear
10:54 PM 72.0 °F - 63.0 °F 73% 30.23 in 10.0 mi SE 9.2 mph - N/A   Clear
11:54 PM 70.0 °F - 63.0 °F 78% 30.22 in 10.0 mi SE 4.6 mph - N/A   Clear